Showing default

QIANFAN-54, 62255

Orbit data source: Space-Track

QIANFAN-54, 62255 is a Chinese payload satellite in LEO that was launched on Thu, 05 Dec 2024 UTC via a CHANG ZHENG 6A launch vehicle from the Taiyaun Space Center, China (TSC). Payload-class satellites include a variety of spacecraft equipped with specific instruments for various scientific and technological missions. These include communications satellites like Starlink; space stations such as the ISS; scientific satellites like the Hubble; Earth observation satellites from companies like Planet Labs, Umbra, and HawkEye 360; GPS; miniature CubeSats for education and research; and military/defense satellites.

Loading next visibility...
Identifier
62255, 2024-232U
Orbit
LEO
Country
Flag of CNCN / PRC
Related business
Manufacturer
SECM
Mission
Operational Commercial Communications
Bus & Motor
QIANFAN, Unknown motor
Mass
267 kg wet, ~267 kg dry
Launch date (UTC)
2024-12-05 (1 year ago)
Launch vehicle
CHANG ZHENG 6A
Launch site
Taiyaun Space Center, China (TSC)
Object type
Payload
Rocket body
Debris
Shape & HBR
Box + 1 Pan, 5.0 m
Radar Cross Section
13.200 m², Large (>1 m²)

Expand to show TLE details & history
Last TLE update: 9 hours ago

TLE from 9 hours ago
0 QIANFAN-54
1 62255U 24232U   26035.22410518  .00000022  00000-0  15014-4 0  9991
2 62255  89.0004  35.4874 0004083  84.7000 275.4617 13.50985551106638
Epoch: 2026-02-04T05:22Z
TLE epoch observation values (Epoch: 2026-02-04T05:22:42.687Z)
Latitude
-0.00002°
Longitude
-179.58422°
Altitude
1,071.3 km
Speed
7.316 km/s
True Right ascension
02h 21m 56s
True Declination
0° 00' 00"
Sunlit
Object was in daylight at epoch
Visualization orbit readout
Latitude
Unknown
Longitude
Unknown
Altitude
Unknown
Speed
Unknown
Apparent Right ascension
Unknown
Apparent Declination
Unknown
Sunlit
N/A
Visualization observer readout
Local Sidereal Time
16:08:40
Azimuth
Unknown
Elevation
Unknown
Doppler factor
Unknown
Orbital elements
Apogee altitude
1,068.725 km
Perigee altitude
1,062.646 km
Semi-major axis
7,443.823 km
Eccentricity
0.00041
Inclination
89.0004°
RAAN
35.4874°
Arg. of periapsis
84.7°
True anomaly
275.41512°
Mean anomaly
275.4617°
Eccentric anomaly
275.43841°
Mean motion
3.37947 °/min
Orbital period
106.53 mins
BSTAR
0.000015014
Loading maneuver chart data...
Computing Atmospheric mass density...
Loading historical data...
Loading historical data...
Loading historical data...
Loading historical data...
Loading historical data...
Loading historical data...
Loading historical data...

Documentation

Showing up to 5 results
|